Location: Aranbee
(34.0885°N, 118.2342°W)
Time: 12:41:04
(UTC+00:00)

Tiros 1 - Pass Details

Date: 01 December 2020
Orbit: 630 x 663 km, 48.4° (Epoch: 21 January)

Event Time Altitude Azimuth Distance (km) Brightness Sun altitude
Rises 06:35:23 0° 284° (WNW) 2,958 - -70.9°
Reaches altitude 10° 06:39:36 10° 248° (WSW) 2,032 - -71.6°
Maximum altitude 06:40:46 11° 233° (SW) 1,971 - -71.8°
Drops below altitude 10° 06:41:56 10° 219° (SW) 2,024 - -72.0°
Sets 06:46:07 0° 182° (S) 2,917 - -72.7°
